Regional Weather Roundup
Issued by NWS

Home | Current Version | Previous Version | Text Only | Print | Product List | Glossary Off
Versions: 1 2 3 4 5 6 7 8 9 10 11 12 13 14 15 16 17 18 19 20 21 22 23 24 25 26 27 28

000
ASUS45 KBOU 192010
RWRCO

WEATHER ROUNDUP FOR COLORADO
NATIONAL WEATHER SERVICE DENVER/BOULDER CO
100 PM MST FRI JAN 19 2018

NOTE: "FAIR" INDICATES FEW OR NO CLOUDS BELOW 12000 FEET WITH NO
SIGNIFICANT WEATHER AND/OR OBSTRUCTIONS TO VISIBILITY.

COZ001>005-013-030-031-192100-
...NORTHWEST COLORADO...

CITY           SKY/WX    TMP DP  RH WIND       PRES   REMARKS
CRAIG          FAIR      48  23  37 SW21      29.86F
HAYDEN         FAIR     N/A N/A N/A CALM      29.89
MEEKER         FAIR      51  22  31 S18G29    29.89F
RABBIT EARS PA FAIR      32  23  69 W10G20    29.96F WCI  24
STEAMBOAT SPGS FAIR      32  20  62 CALM      29.89F
WALDEN         FAIR      50  18  27 SW26G36   29.87F
$$

COZ006>008-011-192100-
...WEST CENTRAL VALLEYS...

CITY           SKY/WX    TMP DP  RH WIND       PRES   REMARKS
GRAND JUNCTION FAIR      42  22  44 W3        29.95F
MONTROSE       FAIR      45  18  34 N3        29.97F
EAGLE          FAIR      46  17  31 NW5       29.92F
RIFLE          FAIR      46  20  35 N3        29.94F
DELTA          FAIR      52  16  24 CALM      29.96F
NUCLA          FAIR      52  16  24 NW3       30.03F
$$

COZ017>023-064>068-192100-
...SOUTHWEST COLORADO...

CITY           SKY/WX    TMP DP  RH WIND       PRES   REMARKS
DURANGO        FAIR      48  20  32 CALM      30.06F
CORTEZ         FAIR      53  20  27 VRB3      30.03F
PAGOSA SPRINGS FAIR      47  12  24 CALM      30.09F
TELLURIDE      PTSUNNY   51  19  28 W5        30.08F
WOLF CREEK PAS FAIR      30  10  43 SW17G25   30.20F WCI  18
$$

COZ009-010-012-014-032>034-037-058>063-192100-
...CENTRAL COLORADO...

CITY           SKY/WX    TMP DP  RH WIND       PRES   REMARKS
ASPEN          FAIR      52  20  28 N5        29.92F
BUENA VISTA    FAIR      54  11  18 W13G25    29.93F
COPPER MTN     NOT AVBL
BERTHOUD PASS  FAIR      32  21  64 NW40G58   30.00S WCI  16
COTTONWOOD PAS   N/A     50  12  22 W20G38    30.00F
GUNNISON       FAIR      33  13  43 CALM      30.05F
KREMMLING      FAIR      59  19  21 SW15G26   29.89F
LEADVILLE      FAIR      47  15  27 N12G18    29.97F
MONARCH PASS   FAIR      32  14  47 W44G53    30.18F WCI  15
SALIDA         FAIR      58  10  15 SW16G24   30.01F
SUNLIGHT       FAIR      34  18  51 SW15G31   30.06F WCI  24
WILKERSON PASS FAIR      41   9  26 SW14G29   30.05F
$$

COZ069>075-192100-
...SAN LUIS VALLEY/SANGRE DE CRISTO MOUNTAINS...

CITY           SKY/WX    TMP DP  RH WIND       PRES   REMARKS
ALAMOSA        FAIR      44   7  21 VRB3      30.01F
DEL NORTE      FAIR      43   7  23 NE5       30.03F
LA VETA PASS   FAIR      46  12  25 SW17G32     N/A
SAGUACHE       FAIR      43   7  22 SE6       30.03F
$$

COZ035-036-038>040-192100-
...NORTHERN COLORADO FRONT RANGE...

CITY           SKY/WX    TMP DP  RH WIND       PRES   REMARKS
DENVER INTL AP PTSUNNY   63  16  16 W7        29.74F
DMNS CITY PARK NOT AVBL
AURORA         PTSUNNY   64  14  14 S7        29.74F
FRONT RANGE AP PTSUNNY   63  23  22 NW7G21    29.74F
ERIE MUNI ARPT FAIR      66  13  13 SE5       29.77F
BOULDER MUN AP FAIR      68  18  14 SW17G33   29.72F
CENTENNIAL     PTSUNNY   66  12  12 S16       29.75F
BROOMFIELD     PTSUNNY   64  16  15 SE5       29.75F
FORT COLLINS   FAIR      54  28  36 S9        29.71F
LONGMONT       FAIR      74  16  11 SW17G24   29.72F
$$

COZ041-046-047-076>085-087-088-192100-
...PIKES PEAK/PALMER DIVIDE AND SOUTHERN FOOTHILLS...

CITY           SKY/WX    TMP DP  RH WIND       PRES   REMARKS
COLO. SPRINGS  PTSUNNY   62  15  16 E5        29.81F
A. F. ACADEMY  FAIR      65  11  12 SW14G25   29.80F
SCHRIEVER AFB  FAIR      62  11  13 CALM      29.81F
CHEYENNE MTN   FAIR      64  11  12 NW8       29.79F
ELLICOTT         N/A    N/A N/A N/A NW6       29.79F
FALCON         FAIR      61  10  13 NW14G25   29.84F
FORT CARSON    MOSUNNY   67  13  12 SW16G23   29.78F
LIMON          FAIR      66  11  11 W9G20     29.75F
MONUMENT HILL  FAIR      54  16  22 S7        29.85F
CANON CITY     FAIR      70  16  12 W24G31    29.78F
WALSENBURG     FAIR      66  14  13 W24       29.83F
TRINIDAD       FAIR      68  17  14 NW14      29.82F
$$

COZ042>045-048>051-090-091-192100-
...NORTHEAST COLORADO...

CITY           SKY/WX    TMP DP  RH WIND       PRES   REMARKS
GREELEY ARPT   FAIR      42  25  50 NE3       29.73F
AKRON          FAIR      55  22  27 W9        29.71F
BURLINGTON     FAIR      73  18  12 W16       29.69F
WRAY           FAIR      68  18  14 NW12      29.67F
YUMA           FAIR      68  18  14 NW15      29.69F
STERLING       FAIR      45  25  45 S7        29.68F
HOLYOKE        FAIR      61  23  23 NW8       29.68F
FORT MORGAN    FAIR      44  18  36 SW3       29.72F
$$

COZ086-089-092>099-192100-
...SOUTHEAST COLORADO...

CITY           SKY/WX    TMP DP  RH WIND       PRES   REMARKS
PUEBLO         FAIR      68  15  13 W7        29.74F
LA JUNTA       FAIR      69  21  16 W8        29.73F
LAMAR          FAIR      65  17  15 W6        29.69F
SPRINGFIELD      N/A     75  12   9 MISG      29.73F
$$




USA.gov is the U.S. government's official web portal to all federal, state and local government web resources and services.